TITAN 3C TRANSTAGE DEB, 3978

Orbit data source: Space-Track

TITAN 3C TRANSTAGE DEB, 3978 is space debris in LEO originally from a launch on Fri, 15 Oct 1965 UTC launched from the Air Force Eastern Test Range (AFETR). Debris objects in space refer to the collection of defunct objects orbiting the Earth. Examples of debris include non-operational satellites, rocket bodies, and fragments generated from explosions, collisions, or faulty payload assembly.

Loading next visibility...
Identifier
3978, 1965-082SE
Orbit
LEO
Country
Flag of USUS
Related business
Manufacturer
Unknown
Mission
Spacecraft
Bus & Motor
Unknown
Mass
Unknown
Launch date (UTC)
1965-10-15 (60 years ago)
Launch vehicle
Unknown
Launch site
Air Force Eastern Test Range (AFETR)
Object type
Payload
Rocket body
Debris
Shape & HBR
Unknown shape, 0.1 m
Radar Cross Section
Small (<0.1 m²)

Expand to show TLE details & history
Last TLE update: 12 hours ago

TLE from 12 hours ago
0 TITAN 3C TRANSTAGE DEB
1  3978U 65082SE  25289.09890167  .00001708  00000-0  27277-3 0  9998
2  3978  32.5643 286.3732 0034439 285.8478  73.8382 14.69932434410964
Epoch: 2025-10-16T02:22Z
TLE epoch observation values (Epoch: 2025-10-16T02:22:25.104Z)
Latitude
-0.00002°
Longitude
-134.09492°
Altitude
653.302 km
Speed
7.537 km/s
True Right ascension
19h 05m 29s
True Declination
0° 00' 00"
Sunlit
Object was in daylight at epoch
Visualization orbit readout
Latitude
Unknown
Longitude
Unknown
Altitude
Unknown
Speed
Unknown
Apparent Right ascension
Unknown
Apparent Declination
Unknown
Sunlit
N/A
Visualization observer readout
Local Sidereal Time
08:59:20
Azimuth
Unknown
Elevation
Unknown
Doppler factor
Unknown
Orbital elements
Apogee altitude
689.082 km
Perigee altitude
640.572 km
Semi-major axis
7,042.964 km
Eccentricity
0.00344
Inclination
32.5643°
RAAN
286.3732°
Arg. of periapsis
285.8478°
True anomaly
74.2177°
Mean anomaly
73.8382°
Eccentric anomaly
74.0279°
Mean motion
3.67206 °/min
Orbital period
98.04 mins
BSTAR
0.00027277

Documentation

Showing up to 5 results
|